User: anonymous   Login
Location: Caltech
(34.1382°N, 118.1253°W)
Time: 09:14:17
(UTC-08:00)
Language:

Cosmos 1833 - Orbit

View from above orbital plane
View from above orbital plane
View from above satellite
View from above satellite

Ground track
Ground track

The orbit data is extracted from the following two-line orbital elements,

1 17589U 87027A   14355.23535296 -.00000008  00000-0  21689-4 0  8906
2 17589 070.9225 294.8267 0013661 247.5332 214.4107 14.12863393431926
Epoch (UTC): 21 December 2014 05:38:54
Eccentricity: 0.0013661
inclination: 70.9225°
perigee height: 840 km
apogee height: 859 km
right ascension of ascending node: 294.8267°
argument of perigee: 247.5332°
revolutions per day: 14.12863393
mean anomaly at epoch: 214.4107°
orbit number at epoch: 43192

The dashed part of the orbit path shows where the satellite is in the earth's shadow,  

DLR